NOAA 16 DEB, 41249

Orbit data source: Space-Track

NOAA 16 DEB, 41249 is space debris in SSO originally from a launch on Thu, 21 Sep 2000 UTC launched from the Air Force Western Test Range (AFWTR). Debris objects in space refer to the collection of defunct objects orbiting the Earth. Examples of debris include non-operational satellites, rocket bodies, and fragments generated from explosions, collisions, or faulty payload assembly.

Loading next visibility...
Identifier
41249, 2000-055EZ
Orbit
SSO
Country
Flag of USUS
Related business
Manufacturer
Unknown
Mission
Spacecraft
Bus & Motor
Unknown
Mass
Unknown
Launch date (UTC)
Icon of a cake. It is the launch day of the satellite!2000-09-21 (26 years ago)
Launch vehicle
Unknown
Launch site
Air Force Western Test Range (AFWTR)
Object type
Payload
Rocket body
Debris
Shape & HBR
Unknown shape, 0.1 m
Radar Cross Section
Medium (>0.1 m² and <1 m²)

Expand to show TLE details & history
Last TLE update: 1 day ago

TLE from 1 day ago
0 NOAA 16 DEB
1 41249U 00055EZ  26263.46621984  .00004552  00000-0  92208-3 0  9999
2 41249  98.9497 143.6274 0030377  93.6258 266.8416 14.61530019559729
Epoch: 2026-09-20T11:11Z
TLE epoch observation values (Epoch: 2026-09-20T11:11:21.394Z)
Latitude
0.00006°
Longitude
-23.57175°
Altitude
692.449 km
Speed
7.509 km/s
True Right ascension
09h 34m 30s
True Declination
0° 00' 00"
Sunlit
Object was in daylight at epoch
Visualization orbit readout
Latitude
Unknown
Longitude
Unknown
Altitude
Unknown
Speed
Unknown
Apparent Right ascension
Unknown
Apparent Declination
Unknown
Sunlit
N/A
Visualization observer readout
Local Sidereal Time
08:27:39
Azimuth
Unknown
Elevation
Unknown
Doppler factor
Unknown
Orbital elements
Apogee altitude
706.81 km
Perigee altitude
663.896 km
Semi-major axis
7,063.49 km
Eccentricity
0.00304
Inclination
98.9497°
RAAN
143.6274°
Arg. of periapsis
93.6258°
True anomaly
266.49411°
Mean anomaly
266.8416°
Eccentric anomaly
266.66785°
Mean motion
3.65607 °/min
Orbital period
98.47 mins
BSTAR
0.00092208
Loading maneuver chart data...
Computing Atmospheric mass density...
Loading historical data...
Loading historical data...
Loading historical data...
Loading historical data...
Loading historical data...
Loading historical data...
Loading historical data...

Documentation

Showing up to 5 results
|